Location: Bron Breck
(40.6655°N, 111.8083°W)
Time: 22:57:40
(UTC+00:00)

Envisat - Pass Details

Date: 14 March 2021
Orbit: 764 x 766 km, 98.1° (Epoch: 12 April)

Event Time Altitude Azimuth Distance (km) Brightness Sun altitude
Rises 11:33:24 0° 38° (NE) 3,237 7.1 -24.5°
Reaches altitude 10° 11:38:17 10° 80° (E) 2,302 6.5 -23.6°
Maximum altitude 11:39:00 10° 88° (E) 2,282 6.4 -23.5°
Drops below altitude 10° 11:39:43 10° 96° (E) 2,300 6.4 -23.3°
Sets 11:44:33 0° 138° (SE) 3,217 6.6 -22.4°
